Location: Kershaw
(34.5481°N, 80.5823°W)
Time: 21:15:53
(UTC+00:00)

Explorer 11/Cluster Stage 4 - Visible Passes

Search period start: 02 December 2023 00:00
Search period end: 12 December 2023 00:00
Orbit: 465 x 1227 km, 28.8° (Epoch: 02 December)

Date Brightness Start Highest point End Pass type
(mag) Time Alt. Az. Time Alt. Az. Time Alt. Az.
02 Dec 7.5 23:26:00 10° WSW 23:30:18 31° SSW 23:33:33 12° SE visible
03 Dec 7.7 23:09:54 10° WSW 23:14:24 31° SSW 23:18:12 10° SE visible
04 Dec 7.9 22:53:45 10° WSW 22:58:28 31° SSW 23:02:25 10° SE visible
05 Dec 8.2 22:37:34 10° WSW 22:42:30 30° SSW 22:46:36 10° SE visible
